Flag for Germany Weather past 2 weeks in Filderstadt, Baden-Württemberg, Germany

Now
72 °F

Passing clouds.


Feels Like: 76 °F
Forecast: 47 / 72 °F
Wind: 3 mph from Northeast

Location: Stuttgart-Echterdingen


UV Index: 3 (Moderate)

Visibility: 31 mi


Pressure: 29.93 "Hg

Humidity: 31%

Dew point: 40 °F

Location of FilderstadtLocation

Historic Weather in Filderstadt

°F

Filderstadt temperature yesterday

Maximum temperature yesterday: 67 °F (at 1:00 PM)
Minimum temperature yesterday: 44 °F (at 7:00 AM)
Average temperature yesterday: 57 °F

Past Weeks' High & Low Weather Summary

 TemperatureHumidityPressure
High72 °F (Apr 24, 3:00 PM)98% (Apr 22, 8:00 AM)30.42 "Hg (Apr 22, 8:00 AM)
Low33 °F (Apr 17, 6:00 AM)25% (Apr 17, 5:00 PM)29.61 "Hg (Apr 21, 2:00 PM)
Average50 °F66%30.03 "Hg
* Reported Apr 9 5:00 PM — Apr 24 5:00 PM, Filderstadt, Weather by CustomWeather, © 2014

Note: Actual official high and low records may vary slightly from our data, if they occured in-between our weather recording intervals... More about our weather records

Advertising

Historic Weather Conditions — Data for Previous 24 hours

 ConditionsComfort  
Time TempWeatherWind HumidityBarometerVisibility
5:00 PM
Apr 24
72 °FPassing clouds.3 mph31%29.93 "Hg31 mi
4:00 PM70 °FPassing clouds.5 mph35%29.96 "Hg31 mi
3:00 PM72 °FScattered clouds.2 mph32%29.97 "Hg31 mi
2:00 PM70 °FPassing clouds.2 mph35%30.00 "Hg25 mi
1:00 PM68 °FPassing clouds.3 mph47%30.02 "Hg19 mi
12:00 PM64 °FPassing clouds.2 mph55%30.05 "Hg14 mi
10:00 AM56 °FPassing clouds.1 mph76%30.10 "Hg14 mi
9:00 AM51 °FPassing clouds.1 mph82%30.12 "Hg14 mi
8:00 AM47 °FPassing clouds.1 mph90%30.12 "Hg16 mi
7:00 AM43 °FPassing clouds.1 mph95%30.13 "Hg16 mi
6:00 AM42 °FPassing clouds.1 mph93%30.12 "Hg19 mi
4:00 AM46 °FPassing clouds.1 mph88%30.11 "Hg25 mi
3:00 AM47 °FPassing clouds.1 mph83%30.11 "Hg28 mi
2:00 AM48 °FPassing clouds.1 mph81%30.12 "Hg31 mi
1:00 AM51 °FPassing clouds.1 mph78%30.11 "Hg31 mi
12:00 AM54 °FPassing clouds.1 mph71%30.10 "Hg34 mi
10:00 PM
Apr 23
59 °FPassing clouds.2 mph60%30.08 "Hg37 mi
9:00 PM61 °FPassing clouds.2 mph55%30.06 "Hg37 mi
8:00 PM63 °FPartly sunny.3 mph49%30.03 "Hg37 mi
7:00 PM66 °FPartly sunny.5 mph40%30.02 "Hg37 mi
6:00 PM67 °FPartly sunny.2 mph42%30.02 "Hg37 mi
5:00 PM67 °FPartly sunny.2 mph45%30.03 "Hg37 mi
Weather by CustomWeather, © 2014

See weather overview